Mackall AAF, NC

9:42 PM EDT on October 13, 2019 (GMT -0400)
Mackall Army Air Field

Weather History for KHFF - September, 2019

Change the Weather History Date:

Wednesday, September 18, 2019

  Actual Average Record
Temperature  
Mean Temperature 72 °F -  
Max Temperature 81 °F 78 °F 90 °F (2016)
Min Temperature 63 °F 61 °F 50 °F (2013)
Cooling Degree Days 6    
Growing Degree Days 22 (Base 50)    
Moisture  
Dew Point 57 °F    
Average Humidity 63    
Maximum Humidity 84    
Minimum Humidity 41    
Precipitation  
Precipitation 0.00 in - - ()
Sea Level Pressure  
Sea Level Pressure 30.15 in    
Wind  
Wind Speed 7 mph ()    
Max Wind Speed 13 mph    
Max Gust Speed 21 mph    
Visibility 10.0 miles    
Events      
Averages and records for this station are not official NWS values.
T = Trace of Precipitation, MM = Missing Value Source: Averaged Metar Reports

Daily Weather History Graph

Daily Weather History Graph

Search for Another Location

Airport or City:

Astronomy

Sep. 18, 2019 Rise Set
Actual Time 7:02 AM EDT 7:20 PM EDT
Civil Twilight 6:37 AM EDT 7:46 PM EDT
Nautical Twilight 6:07 AM EDT 8:15 PM EDT
Astronomical Twilight 5:37 AM EDT 8:45 PM EDT
Moon 10:03 PM EDT (9/18) 10:56 AM EDT (9/18)
Length of Visible Light 13h 08m
Length of Day
12h 18m
Waning Gibbous, 82% of the Moon is Illuminated
Sep 18
Waning Gibbous
Sep 21
Last Quarter
Sep 28
New
Oct 5
First Quarter
Oct 13
Full

Hourly Weather History & Observations

Time (EDT) Temp. Heat Index Dew Point Humidity Pressure Visibility Wind Dir Wind Speed Gust Speed Precip Events Conditions
12:56 AM 71.1 °F - 65.8 °F 84% 30.09 in 10.0 mi ENE 10.4 mph - N/A   Mostly Cloudy
1:56 AM 70.9 °F - 65.7 °F 83% 30.10 in 10.0 mi East 9.2 mph - N/A   Overcast
2:56 AM 70.2 °F - 64.6 °F 82% 30.10 in 10.0 mi East 8.1 mph - N/A   Mostly Cloudy
3:24 AM 69.8 °F - 64.4 °F 83% 30.12 in 10.0 mi East 8.1 mph - N/A   Mostly Cloudy
3:56 AM 69.8 °F - 63.5 °F 80% 30.12 in 10.0 mi East 6.9 mph - N/A   Overcast
4:56 AM 69.1 °F - 61.7 °F 77% 30.13 in 10.0 mi ENE 5.8 mph - N/A   Mostly Cloudy
5:56 AM 68.5 °F - 58.6 °F 71% 30.14 in 10.0 mi East 5.8 mph - N/A   Overcast
6:56 AM 66.2 °F - 59.2 °F 78% 30.15 in 10.0 mi ENE 5.8 mph - N/A   Mostly Cloudy
7:49 AM 66.2 °F - 60.8 °F 83% 30.17 in 10.0 mi ENE 6.9 mph - N/A   Overcast
7:56 AM 67.1 °F - 60.6 °F 80% 30.17 in 10.0 mi NE 6.9 mph - N/A   Overcast
9:56 AM 72.1 °F - 54.3 °F 53% 30.18 in 10.0 mi East 10.4 mph - N/A   Partly Cloudy
10:56 AM 73.0 °F - 54.0 °F 51% 30.18 in 10.0 mi East 9.2 mph - N/A   Mostly Cloudy
11:56 AM 75.9 °F - 52.9 °F 45% 30.18 in 10.0 mi East 12.7 mph - N/A   Scattered Clouds
12:56 PM 74.7 °F - 52.5 °F 46% 30.18 in 10.0 mi ESE 6.9 mph - N/A   Mostly Cloudy
1:56 PM 78.4 °F - 55.2 °F 45% 30.17 in 10.0 mi ENE 12.7 mph 20.7 mph N/A   Partly Cloudy
2:45 PM 78.8 °F - 57.2 °F 47% 30.15 in 10.0 mi NE 8.1 mph - N/A   Partly Cloudy
2:56 PM 79.7 °F - 56.7 °F 45% 30.15 in 10.0 mi NE 11.5 mph 19.6 mph N/A   Partly Cloudy
3:56 PM 80.4 °F 80.5 °F 55.9 °F 43% 30.15 in 10.0 mi ENE 6.9 mph - N/A   Scattered Clouds
4:56 PM 80.1 °F 80.1 °F 54.5 °F 41% 30.14 in 10.0 mi ENE 9.2 mph - N/A   Scattered Clouds
5:56 PM 77.7 °F - 53.6 °F 43% 30.15 in 10.0 mi ENE 5.8 mph - N/A   Clear
6:56 PM 74.3 °F - 54.9 °F 51% 30.15 in 10.0 mi ESE 4.6 mph - N/A   Partly Cloudy
7:42 PM 71.6 °F - 55.4 °F 57% 30.17 in 10.0 mi ESE 4.6 mph - N/A   Mostly Cloudy
7:56 PM 71.6 °F - 55.2 °F 56% 30.17 in 10.0 mi ESE 4.6 mph - N/A   Mostly Cloudy
8:56 PM 69.4 °F - 54.3 °F 59% 30.14 in 10.0 mi East 3.5 mph - N/A   Partly Cloudy
9:17 PM 68.0 °F - 53.6 °F 60% 30.16 in 10.0 mi East 3.5 mph - N/A   Partly Cloudy
9:56 PM 67.3 °F - 54.0 °F 62% 30.17 in 10.0 mi East 3.5 mph - N/A   Clear
10:56 PM 63.0 °F - 54.7 °F 74% 30.18 in 10.0 mi Calm Calm - N/A   Clear
11:34 PM 64.4 °F - 53.6 °F 68% 30.20 in 10.0 mi ESE 4.6 mph - N/A   Clear
11:56 PM 64.2 °F - 54.1 °F 70% 30.20 in 10.0 mi East 4.6 mph - N/A   Clear